Location: Krasnoyarskiy Pitomnik
(51.1333°N, 71.6167°E)
Time: 10:20:30
(UTC+00:00)

USA 229 - Pass Details

Date: 22 October 2021
Orbit: 946 x 1266 km, 63.4° (Epoch: 25 November)

Event Time Altitude Azimuth Distance (km) Brightness Sun altitude
Rises 15:21:07 0° 229° (SW) 3,655 6.8 -30.8°
Reaches altitude 10° 15:23:36 10° 231° (SW) 2,738 6.1 -31.2°
Maximum altitude 15:30:03 77° 317° (NW) 1,065 3.6 -32.1°
Enters shadow 15:30:08 77° 326° (NW) 1,066 3.6 -32.1°
